{"data":{"norad_id":47843,"epoch":"2026-05-24T19:27:01.367136Z","epoch_age_seconds":94625,"freshness":"FRESH","line1":"1 47843U 21018BJ  26144.81043249  .00005020  00000+0  17327-3 0  9995","line2":"2 47843  53.1577 261.2531 0001170  86.7265 273.3870 15.31726611288224","mean_motion":15.31726611,"eccentricity":0.000117,"inclination_deg":53.1577,"raan_deg":261.2531,"arg_perigee_deg":86.7265,"mean_anomaly_deg":273.387,"bstar":0.00017327,"rev_number":28822,"period_min":94.011554650727,"perigee_km":469.8593610404,"apogee_km":471.46197969526,"semimajor_km":6848.7976703678,"source":"CELESTRAK","updated_at":"2026-05-25T13:38:16.608517Z"}}